Time,TemperatureF,DewpointF,PressureIn,WindDirection,WindDirectionDegrees,WindSpeedMPH,WindSpeedGustMPH,Humidity,HourlyPrecipIn,Conditions,Clouds,dailyrainin,SolarRadiationWatts/m^2,SoftwareType,DateUTC
2013-03-18 00:05:00,24.8,8.0,29.97,NNE,22,2.0,4.0,48,0.00,,,0.00,0,weatherlink.com 1.10,2013-03-18 04:05:00,
2013-03-18 00:20:00,24.5,8.0,29.98,NNE,22,1.0,4.0,50,0.00,,,0.00,0,weatherlink.com 1.10,2013-03-18 04:20:00,
2013-03-18 00:35:00,24.5,8.0,29.98,North,9,3.0,7.0,50,0.00,,,0.00,0,weatherlink.com 1.10,2013-03-18 04:35:00,
2013-03-18 00:50:00,24.0,7.0,30.00,North,9,0.0,4.0,49,0.00,,,0.00,0,weatherlink.com 1.10,2013-03-18 04:50:00,
2013-03-18 01:05:00,23.3,8.0,30.00,NNE,14,3.0,5.0,53,0.00,,,0.00,0,weatherlink.com 1.10,2013-03-18 05:05:00,
2013-03-18 01:20:00,23.0,7.0,30.01,North,9,1.0,4.0,51,0.00,,,0.00,0,weatherlink.com 1.10,2013-03-18 05:20:00,
2013-03-18 01:35:00,22.5,8.0,30.02,North,9,2.0,4.0,55,0.00,,,0.00,0,weatherlink.com 1.10,2013-03-18 05:35:00,
2013-03-18 01:50:00,21.9,7.0,30.02,North,360,2.0,5.0,53,0.00,,,0.00,0,weatherlink.com 1.10,2013-03-18 05:50:00,
2013-03-18 02:05:00,21.8,7.0,30.03,NNE,19,3.0,5.0,54,0.00,,,0.00,0,weatherlink.com 1.10,2013-03-18 06:05:00,
2013-03-18 02:20:00,21.7,6.0,30.03,North,9,4.0,6.0,52,0.00,,,0.00,0,weatherlink.com 1.10,2013-03-18 06:20:00,
2013-03-18 02:35:00,21.6,5.0,30.04,NNE,13,3.0,5.0,50,0.00,,,0.00,0,weatherlink.com 1.10,2013-03-18 06:35:00,
2013-03-18 02:50:00,21.3,5.0,30.04,NNW,340,0.0,6.0,50,0.00,,,0.00,0,weatherlink.com 1.10,2013-03-18 06:50:00,
2013-03-18 03:05:00,20.9,4.0,30.05,North,5,1.0,5.0,48,0.00,,,0.00,0,weatherlink.com 1.10,2013-03-18 07:05:00,
2013-03-18 03:20:00,20.6,4.0,30.05,North,5,1.0,3.0,49,0.00,,,0.00,0,weatherlink.com 1.10,2013-03-18 07:20:00,
2013-03-18 03:35:00,20.0,4.0,30.06,North,5,0.0,3.0,51,0.00,,,0.00,0,weatherlink.com 1.10,2013-03-18 07:35:00,
2013-03-18 03:50:00,19.5,4.0,30.06,North,5,1.0,1.0,52,0.00,,,0.00,0,weatherlink.com 1.10,2013-03-18 07:50:00,
2013-03-18 04:20:00,18.1,6.0,30.05,North,5,0.0,1.0,59,0.00,,,0.00,0,weatherlink.com 1.10,2013-03-18 08:20:00,
2013-03-18 04:35:00,17.5,6.0,30.05,North,5,0.0,2.0,60,0.00,,,0.00,0,weatherlink.com 1.10,2013-03-18 08:35:00,
2013-03-18 04:50:00,17.0,6.0,30.06,North,5,0.0,1.0,63,0.00,,,0.00,0,weatherlink.com 1.10,2013-03-18 08:50:00,
2013-03-18 05:05:00,16.3,6.0,30.06,North,5,0.0,2.0,65,0.00,,,0.00,0,weatherlink.com 1.10,2013-03-18 09:05:00,
2013-03-18 05:20:00,15.9,6.0,30.07,North,5,0.0,0.0,65,0.00,,,0.00,0,weatherlink.com 1.10,2013-03-18 09:20:00,
2013-03-18 05:35:00,15.2,7.0,30.07,North,5,0.0,1.0,70,0.00,,,0.00,0,weatherlink.com 1.10,2013-03-18 09:35:00,
2013-03-18 05:51:00,14.8,7.0,30.08,North,5,0.0,0.0,71,0.00,,,0.00,0,weatherlink.com 1.10,2013-03-18 09:51:00,
2013-03-18 06:06:00,14.4,8.0,30.09,North,5,1.0,3.0,74,0.00,,,0.00,0,weatherlink.com 1.10,2013-03-18 10:06:00,
2013-03-18 06:21:00,14.2,7.0,30.09,North,5,0.0,2.0,74,0.00,,,0.00,0,weatherlink.com 1.10,2013-03-18 10:21:00,
2013-03-18 06:36:00,13.6,7.0,30.09,North,5,1.0,2.0,76,0.00,,,0.00,0,weatherlink.com 1.10,2013-03-18 10:36:00,
2013-03-18 06:51:00,13.2,8.0,30.09,North,5,2.0,3.0,78,0.00,,,0.00,0,weatherlink.com 1.10,2013-03-18 10:51:00,
2013-03-18 07:06:00,13.2,8.0,30.10,North,5,0.0,2.0,80,0.00,,,0.00,11,weatherlink.com 1.10,2013-03-18 11:06:00,
2013-03-18 07:21:00,13.1,8.0,30.10,North,5,0.0,0.0,80,0.00,,,0.00,18,weatherlink.com 1.10,2013-03-18 11:21:00,
2013-03-18 07:36:00,13.5,9.0,30.10,North,5,0.0,3.0,82,0.00,,,0.00,25,weatherlink.com 1.10,2013-03-18 11:36:00,
2013-03-18 08:06:00,16.8,10.0,30.12,North,360,4.0,4.0,74,0.00,,,0.00,146,weatherlink.com 1.10,2013-03-18 12:06:00,
2013-03-18 08:36:00,21.4,6.0,30.12,NW,323,4.0,6.0,51,0.00,,,0.00,274,weatherlink.com 1.10,2013-03-18 12:36:00,
2013-03-18 08:51:00,22.7,4.0,30.12,NNW,338,2.0,9.0,45,0.00,,,0.00,290,weatherlink.com 1.10,2013-03-18 12:51:00,
2013-03-18 09:06:00,22.9,4.0,30.11,North,11,4.0,7.0,44,0.00,,,0.00,299,weatherlink.com 1.10,2013-03-18 13:06:00,
2013-03-18 09:21:00,23.6,5.0,30.11,NE,40,3.0,8.0,44,0.00,,,0.00,357,weatherlink.com 1.10,2013-03-18 13:21:00,
2013-03-18 09:36:00,24.1,3.0,30.11,NNE,28,2.0,6.0,41,0.00,,,0.00,348,weatherlink.com 1.10,2013-03-18 13:36:00,
2013-03-18 09:51:00,25.0,6.0,30.11,NE,34,4.0,6.0,44,0.00,,,0.00,424,weatherlink.com 1.10,2013-03-18 13:51:00,
2013-03-18 10:22:00,26.2,4.0,30.10,NE,43,1.0,4.0,39,0.00,,,0.00,475,weatherlink.com 1.10,2013-03-18 14:22:00,
2013-03-18 10:36:00,27.4,5.0,30.09,North,5,3.0,3.0,39,0.00,,,0.00,520,weatherlink.com 1.10,2013-03-18 14:36:00,
2013-03-18 10:52:00,28.0,5.0,30.09,SW,215,0.0,5.0,37,0.00,,,0.00,559,weatherlink.com 1.10,2013-03-18 14:52:00,
2013-03-18 11:07:00,29.4,5.0,30.09,North,355,5.0,5.0,35,0.00,,,0.00,591,weatherlink.com 1.10,2013-03-18 15:07:00,
2013-03-18 11:22:00,30.2,4.0,30.08,North,5,5.0,5.0,33,0.00,,,0.00,610,weatherlink.com 1.10,2013-03-18 15:22:00,
2013-03-18 11:37:00,30.6,4.0,30.08,NNE,28,3.0,5.0,32,0.00,,,0.00,728,weatherlink.com 1.10,2013-03-18 15:37:00,
2013-03-18 11:52:00,30.8,5.0,30.07,ESE,112,0.0,4.0,33,0.00,,,0.00,475,weatherlink.com 1.10,2013-03-18 15:52:00,
2013-03-18 12:07:00,32.6,5.0,30.07,ESE,116,1.0,4.0,31,0.00,,,0.00,772,weatherlink.com 1.10,2013-03-18 16:07:00,
2013-03-18 12:22:00,33.1,4.0,30.06,ESE,109,0.0,6.0,29,0.00,,,0.00,670,weatherlink.com 1.10,2013-03-18 16:22:00,
2013-03-18 12:37:00,33.4,4.0,30.06,WNW,303,0.0,4.0,29,0.00,,,0.00,638,weatherlink.com 1.10,2013-03-18 16:37:00,
2013-03-18 12:52:00,34.8,6.0,30.06,WSW,245,3.0,5.0,30,0.00,,,0.00,617,weatherlink.com 1.10,2013-03-18 16:52:00,
2013-03-18 13:07:00,35.8,6.0,30.05,SE,128,4.0,6.0,29,0.00,,,0.00,715,weatherlink.com 1.10,2013-03-18 17:07:00,
2013-03-18 13:22:00,36.3,5.0,30.04,SE,133,1.0,5.0,27,0.00,,,0.00,708,weatherlink.com 1.10,2013-03-18 17:22:00,
2013-03-18 13:37:00,36.4,7.0,30.04,SW,215,0.0,7.0,29,0.00,,,0.00,686,weatherlink.com 1.10,2013-03-18 17:37:00,
2013-03-18 13:52:00,37.1,5.0,30.03,SW,226,2.0,3.0,26,0.00,,,0.00,520,weatherlink.com 1.10,2013-03-18 17:52:00,
2013-03-18 14:07:00,37.2,3.0,30.02,South,189,0.0,7.0,24,0.00,,,0.00,622,weatherlink.com 1.10,2013-03-18 18:07:00,
2013-03-18 14:22:00,37.6,5.0,30.01,NE,53,1.0,8.0,25,0.00,,,0.00,666,weatherlink.com 1.10,2013-03-18 18:22:00,
2013-03-18 14:37:00,37.8,4.0,30.00,SW,215,0.0,6.0,24,0.00,,,0.00,575,weatherlink.com 1.10,2013-03-18 18:37:00,
2013-03-18 14:52:00,38.6,4.0,30.00,North,350,0.0,7.0,23,0.00,,,0.00,466,weatherlink.com 1.10,2013-03-18 18:52:00,
2013-03-18 15:07:00,37.8,4.0,29.99,SSE,148,1.0,5.0,24,0.00,,,0.00,436,weatherlink.com 1.10,2013-03-18 19:07:00,
2013-03-18 15:22:00,37.7,4.0,29.99,NNW,346,1.0,6.0,24,0.00,,,0.00,355,weatherlink.com 1.10,2013-03-18 19:22:00,
2013-03-18 15:37:00,38.2,5.0,29.98,SSW,197,2.0,4.0,25,0.00,,,0.00,278,weatherlink.com 1.10,2013-03-18 19:37:00,
2013-03-18 15:52:00,38.4,3.0,29.97,South,186,0.0,2.0,23,0.00,,,0.00,285,weatherlink.com 1.10,2013-03-18 19:52:00,
2013-03-18 16:07:00,38.4,7.0,29.97,SSE,167,3.0,4.0,27,0.00,,,0.00,244,weatherlink.com 1.10,2013-03-18 20:07:00,
2013-03-18 16:22:00,38.3,6.0,29.96,SSW,196,0.0,5.0,26,0.00,,,0.00,176,weatherlink.com 1.10,2013-03-18 20:22:00,
2013-03-18 16:37:00,38.1,6.0,29.95,South,175,1.0,3.0,26,0.00,,,0.00,155,weatherlink.com 1.10,2013-03-18 20:37:00,
2013-03-18 16:53:00,37.9,6.0,29.94,East,90,2.0,5.0,26,0.00,,,0.00,107,weatherlink.com 1.10,2013-03-18 20:53:00,
2013-03-18 17:08:00,37.7,6.0,29.93,SE,132,0.0,4.0,27,0.00,,,0.00,83,weatherlink.com 1.10,2013-03-18 21:08:00,
2013-03-18 17:23:00,37.6,9.0,29.93,SE,127,1.0,6.0,30,0.00,,,0.00,63,weatherlink.com 1.10,2013-03-18 21:23:00,
2013-03-18 17:38:00,37.3,8.0,29.93,South,186,1.0,7.0,30,0.00,,,0.00,44,weatherlink.com 1.10,2013-03-18 21:38:00,
2013-03-18 17:53:00,37.1,7.0,29.94,SE,132,0.0,4.0,29,0.00,,,0.00,33,weatherlink.com 1.10,2013-03-18 21:53:00,
2013-03-18 18:08:00,36.7,9.0,29.94,SE,146,0.0,3.0,31,0.00,,,0.00,19,weatherlink.com 1.10,2013-03-18 22:08:00,
2013-03-18 18:23:00,36.3,11.0,29.94,South,182,0.0,4.0,35,0.00,,,0.00,9,weatherlink.com 1.10,2013-03-18 22:23:00,
2013-03-18 18:38:00,35.9,11.0,29.93,SSE,148,0.0,3.0,36,0.00,,,0.00,0,weatherlink.com 1.10,2013-03-18 22:38:00,
2013-03-18 18:53:00,35.5,10.0,29.93,SE,136,0.0,3.0,35,0.00,,,0.00,0,weatherlink.com 1.10,2013-03-18 22:53:00,
2013-03-18 19:08:00,35.1,12.0,29.93,SE,136,0.0,2.0,38,0.00,,,0.00,0,weatherlink.com 1.10,2013-03-18 23:08:00,
2013-03-18 19:23:00,34.7,14.0,29.93,SE,135,1.0,3.0,42,0.00,,,0.00,0,weatherlink.com 1.10,2013-03-18 23:23:00,
2013-03-18 19:38:00,34.4,14.0,29.92,East,86,1.0,3.0,43,0.00,,,0.00,0,weatherlink.com 1.10,2013-03-18 23:38:00,
2013-03-18 19:53:00,34.1,15.0,29.91,SE,140,3.0,5.0,46,0.00,,,0.00,0,weatherlink.com 1.10,2013-03-18 23:53:00,
2013-03-18 20:08:00,33.9,18.0,29.92,SSW,207,0.0,5.0,52,0.00,,,0.00,0,weatherlink.com 1.10,2013-03-19 00:08:00,
2013-03-18 20:23:00,33.7,19.0,29.91,SE,142,0.0,4.0,56,0.00,,,0.00,0,weatherlink.com 1.10,2013-03-19 00:23:00,
2013-03-18 20:38:00,33.4,20.0,29.92,SSW,198,2.0,3.0,58,0.00,,,0.00,0,weatherlink.com 1.10,2013-03-19 00:38:00,
2013-03-18 20:53:00,33.1,20.0,29.91,South,174,4.0,7.0,60,0.00,,,0.00,0,weatherlink.com 1.10,2013-03-19 00:53:00,
2013-03-18 21:08:00,32.8,22.0,29.91,SE,140,3.0,9.0,65,0.00,,,0.00,0,weatherlink.com 1.10,2013-03-19 01:08:00,
2013-03-18 21:23:00,31.5,26.0,29.92,SE,146,0.0,10.0,80,0.00,,,0.00,0,weatherlink.com 1.10,2013-03-19 01:23:00,
2013-03-18 21:53:00,29.7,26.0,29.92,SE,136,4.0,5.0,87,0.00,,,0.00,0,weatherlink.com 1.10,2013-03-19 01:53:00,
2013-03-18 22:08:00,29.4,26.0,29.92,ESE,103,0.0,3.0,88,0.00,,,0.00,0,weatherlink.com 1.10,2013-03-19 02:08:00,
2013-03-18 22:23:00,29.2,26.0,29.92,East,88,2.0,5.0,89,0.00,,,0.00,0,weatherlink.com 1.10,2013-03-19 02:23:00,
2013-03-18 22:38:00,29.2,26.0,29.91,SE,126,3.0,6.0,89,0.00,,,0.00,0,weatherlink.com 1.10,2013-03-19 02:38:00,
2013-03-18 22:53:00,29.2,26.0,29.91,ESE,119,2.0,4.0,89,0.00,,,0.00,0,weatherlink.com 1.10,2013-03-19 02:53:00,
2013-03-18 23:08:00,29.2,26.0,29.91,ESE,108,1.0,3.0,89,0.00,,,0.00,0,weatherlink.com 1.10,2013-03-19 03:08:00,
2013-03-18 23:23:00,29.2,26.0,29.90,ESE,112,1.0,7.0,89,0.00,,,0.00,0,weatherlink.com 1.10,2013-03-19 03:23:00,
2013-03-18 23:38:00,29.2,27.0,29.89,East,88,2.0,4.0,90,0.00,,,0.00,0,weatherlink.com 1.10,2013-03-19 03:38:00,
2013-03-18 23:53:00,29.2,26.0,29.88,ENE,75,2.0,5.0,89,0.00,,,0.00,0,weatherlink.com 1.10,2013-03-19 03:53:00,